This is the latest recevied weather packets stored in our database for station/object KF8LO-1. If no packets are shown the sender has not sent any weather packets the latest 1 day(s).
| Time | Temp. | Humidity | Pressure | Rain* | Wind** | Luminosity | Snow |
|---|---|---|---|---|---|---|---|
| 1778061603 | 13.33° C | 75% | 0 hPa | 3.3 mm | 3.58 m/s, 241° | - | - |
| 1778061303 | 13.33° C | 75% | 0 hPa | 2.79 mm | 3.13 m/s, 240° | - | - |
| 1778061003 | 13.89° C | 73% | 0 hPa | 2.29 mm | 3.13 m/s, 248° | - | - |
| 1778060703 | 13.89° C | 70% | 0 hPa | 1.78 mm | 1.79 m/s, 216° | - | - |
| 1778060403 | 13.89° C | 69% | 0 hPa | 1.52 mm | 4.47 m/s, 257° | - | - |
| 1778060103 | 13.89° C | 68% | 0 hPa | 1.27 mm | 4.02 m/s, 257° | - | - |
| 1778059803 | 14.44° C | 67% | 0 hPa | 0.76 mm | 4.47 m/s, 316° | - | - |
| 1778059503 | 14.44° C | 67% | 0 hPa | 0.76 mm | 3.58 m/s, 275° | - | - |
| 1778059203 | 14.44° C | 65% | 0 hPa | 0.51 mm | 3.58 m/s, 258° | - | - |
| 1778058903 | 14.44° C | 64% | 0 hPa | 0.51 mm | 3.58 m/s, 262° | - | - |
| 1778058603 | 14.44° C | 64% | 0 hPa | 0.51 mm | 4.92 m/s, 232° | - | - |
| 1778058303 | 15° C | 62% | 0 hPa | 0.51 mm | 2.68 m/s, 317° | - | - |
| 1778058003 | 15° C | 61% | 0 hPa | 0.51 mm | 2.68 m/s, 255° | - | - |
| 1778057703 | 15° C | 61% | 0 hPa | 0.51 mm | 8.49 m/s, 274° | - | - |
| 1778057403 | 15° C | 61% | 0 hPa | 0.51 mm | 4.92 m/s, 278° | - | - |
| 1778057103 | 15° C | 60% | 0 hPa | 0.25 mm | 5.81 m/s, 215° | - | - |
| 1778056803 | 15° C | 59% | 0 hPa | 0.25 mm | 3.13 m/s, 270° | - | - |
| 1778056503 | 15° C | 58% | 0 hPa | 0.25 mm | 5.81 m/s, 274° | - | - |
| 1778056203 | 15° C | 58% | 0 hPa | 0.25 mm | 3.13 m/s, 278° | - | - |
| 1778055903 | 15° C | 57% | 0 hPa | 0.25 mm | 4.47 m/s, 216° | - | - |
| 1778055603 | 15° C | 58% | 0 hPa | 0.25 mm | 5.36 m/s, 247° | - | - |
| 1778055303 | 15° C | 58% | 0 hPa | 0.25 mm | 4.92 m/s, 232° | - | - |
| 1778055003 | 15.56° C | 58% | 0 hPa | 0.25 mm | 1.79 m/s, 241° | - | - |
| 1778054703 | 15.56° C | 57% | 0 hPa | 0 mm | 2.24 m/s, 315° | - | - |
| 1778054403 | 15.56° C | 56% | 0 hPa | 0 mm | 2.24 m/s, 306° | - | - |
* Rain latest hour (hover to see other rain measurements)
** Current wind speed in m/s (hover to see current wind gust speed)